Home > Weather > Stamford > Past weeks

Flag for USA Past Weather in Stamford, Connecticut, USA — Yesterday and Last 2 Weeks

Now
78 °F

Sunny.


Feels Like: 80 °F
Forecast: 69 / 91 °F
Wind: 6 mph from Northwest

Location: Westchester County Airport

Current Time: Jul 26, 2016 at 10:05:23 PM

Latest Report: Jul 26, 2016 at 8:56 PM


Visibility: 10 mi

Pressure: 29.89 "Hg

Humidity: 58%

Dew Point: 62 °F

Location of StamfordLocation

Past Weather in Stamford — Graph

°F

Stamford Temperature Yesterday

Maximum temperature yesterday: 88 °F (at 1:56 PM)
Minimum temperature yesterday: 72 °F (at 12:56 AM)
Average temperature yesterday: 77 °F

High & Low Weather Summary for the Past Weeks

 TemperatureHumidityPressure
High94 °F (Jul 23, 2:56 PM)97% (Jul 14, 3:56 AM)30.23 "Hg (Jul 14, 3:56 AM)
Low62 °F (Jul 12, 4:56 AM)25% (Jul 23, 3:56 PM)29.76 "Hg (Jul 22, 6:56 PM)
Average78 °F65%29.98 "Hg
* Reported Jul 11 8:56 PM — Jul 26 8:56 PM, Stamford, Weather by CustomWeather, © 2016

Note: Actual official high and low records may vary slightly from our data, if they occured in-between our weather recording intervals... More about our weather records

Advertising

Stamford Weather History for the Previous 24 Hours

Scroll right to see more
 ConditionsComfort  
Time TempWeatherWind HumidityBarometerVisibility
8:56 PM
Tue, Jul 26
78 °FSunny.6 mph58%29.89 "Hg10 mi
7:56 PM83 °FSunny.8 mph46%29.87 "Hg10 mi
6:56 PM85 °FSunny.7 mph43%29.85 "Hg10 mi
5:56 PM87 °FSunny.12 mph40%29.85 "Hg10 mi
4:56 PM88 °FSunny.14 mph40%29.85 "Hg10 mi
3:56 PM88 °FSunny.13 mph40%29.85 "Hg10 mi
2:56 PM88 °FPassing clouds.16 mph40%29.86 "Hg10 mi
1:56 PM87 °FPassing clouds.12 mph45%29.86 "Hg10 mi
12:56 PM86 °FPassing clouds.12 mph48%29.87 "Hg10 mi
11:56 AM84 °FPassing clouds.9 mph55%29.89 "Hg10 mi
10:56 AM82 °FPassing clouds.10 mph65%29.89 "Hg10 mi
9:56 AM79 °FPassing clouds.12 mph72%29.90 "Hg10 mi
8:56 AM77 °FSunny.9 mph77%29.90 "Hg10 mi
7:56 AM74 °FSunny.6 mph85%29.90 "Hg10 mi
6:56 AM72 °FSunny.6 mph91%29.88 "Hg10 mi
5:56 AM70 °FClear.8 mph93%29.86 "Hg10 mi
4:56 AM70 °FClear.6 mph93%29.85 "Hg10 mi
3:56 AM71 °FClear.8 mph90%29.85 "Hg10 mi
2:56 AM71 °FClear.9 mph93%29.83 "Hg10 mi
1:56 AM72 °FPassing clouds.6 mph91%29.84 "Hg10 mi
12:56 AM73 °FPassing clouds.10 mph94%29.85 "Hg10 mi
11:56 PM
Mon, Jul 25
73 °FFog.8 mph94%29.85 "Hg6 mi
10:56 PM72 °FPassing clouds.5 mph93%29.85 "Hg10 mi
Weather by CustomWeather, © 2016

See weather overviewHow to use our weather pages